Weather observations for the past three days for
St Marys County Airport
Imperial (Metric)
Date Time (edt) Wind (mph) Vis. (mi.) Weather Sky Cond. Temperature (ºF) Relative Humidity Wind Chill (°F) Heat Index (°F) Pressure Precipitation (in)
Air Dwpt 6 hour altimeter (in) sea level (mb) 1 hr 3 hr 6 hr
Max. Min.
21 18:30 SE 6 10.00 Fair CLR 82.4 71.6 70% 87 30.03 0.0
21 18:10 E 6 10.00 Partly Cloudy SCT034 SCT042 82.4 71.6 70% 87 30.03 0.0
21 17:50 SE 7 10.00 Partly Cloudy SCT029 SCT035 82.4 71.6 70% 87 30.03 0.0
21 17:30 E 3 10.00 Partly Cloudy SCT029 84.2 71.6 66% 90 30.04 0.0
21 17:10 S 6 10.00 Partly Cloudy SCT030 SCT047 82.4 69.8 66% 86 30.04 0.0
21 16:50 SE 6 10.00 Partly Cloudy SCT045 82.4 71.6 70% 87 30.04 0.0
21 16:30 SE 7 10.00 Partly Cloudy SCT035 84.2 71.6 66% 90 30.04 0.0
21 16:10 SE 6 10.00 Partly Cloudy SCT039 82.4 69.8 66% 86 30.04 0.0
21 15:50 SE 10 10.00 Mostly Cloudy BKN039 86 69.8 59% 91 30.04 0.0
21 15:30 SE 7 10.00 Mostly Cloudy BKN037 BKN060 86 68 55% 89 30.05 0.0
21 15:10 SE 6 10.00 Mostly Cloudy BKN037 BKN046 BKN060 84.2 69.8 62% 88 30.06 0.0
21 14:50 SE 7 10.00 Overcast BKN030 OVC040 82.4 71.6 70% 87 30.06 0.0
21 14:30 SE 6 10.00 Overcast OVC032 82.4 71.6 70% 87 30.06 0.0
21 14:10 SE 5 10.00 Overcast BKN032 OVC038 84.2 71.6 66% 90 30.06 0.0
21 13:50 SW 3 10.00 Overcast OVC030 82.4 69.8 66% 86 30.06 0.0
21 13:30 SE 6 10.00 Mostly Cloudy SCT030 BKN036 BKN045 82.4 71.6 70% 87 30.07 0.0
21 13:10 S 7 10.00 Overcast BKN028 BKN035 OVC060 82.4 71.6 70% 87 30.07 0.0
21 12:50 Calm 10.00 Overcast OVC026 82.4 71.6 70% 87 30.08 0.0
21 12:30 SW 5 10.00 Overcast BKN028 BKN037 OVC046 80.6 71.6 74% 85 30.08 0.0
21 12:10 W 3 10.00 Overcast BKN030 OVC037 80.6 69.8 70% 84 30.08 0.0
21 11:50 Calm 10.00 Overcast OVC029 80.6 69.8 70% 84 30.08 0.0
21 11:30 Calm 10.00 Overcast OVC027 80.6 69.8 70% 84 30.08 0.0
21 11:10 SW 3 10.00 Overcast OVC027 78.8 69.8 74% 81 30.08 0.0
21 10:50 S 3 10.00 Overcast OVC023 78.8 69.8 74% 81 30.07 0.0
21 10:30 Calm 10.00 Mostly Cloudy BKN023 78.8 69.8 74% 81 30.07 0.0
21 10:10 Calm 10.00 Partly Cloudy SCT017 SCT023 78.8 69.8 74% 81 30.07 0.0
21 09:50 Calm 10.00 Mostly Cloudy BKN017 78.8 69.8 74% 81 30.07 0.0
21 09:30 Calm 10.00 Partly Cloudy SCT015 77 69.8 79% 79 30.07 0.0
21 09:10 W 3 10.00 Fair CLR 77 69.8 79% 79 30.07 0.0
21 08:50 Calm 10.00 Fair CLR 77 69.8 79% 79 30.07 0.0
21 08:30 Calm 10.00 Fair CLR 75.2 69.8 83% 75 30.07 0.0
21 08:10 Calm 10.00 Fair CLR 73.4 69.8 89% 30.07 0.0
21 07:50 Calm 10.00 Fair CLR 71.6 69.8 94% 30.07 0.0
21 07:30 Calm 10.00 Fair CLR 69.8 68 94% 30.06 0.0
21 07:10 Calm 10.00 Fair CLR 69.8 68 94% 30.06 0.0
21 06:50 Calm 10.00 Partly Cloudy SCT021 68 68 100% 30.06 0.0
21 06:30 Calm 7.00 Mostly Cloudy BKN021 68 68 100% 30.06 0.0
21 06:10 Calm 7.00 Overcast OVC019 68 68 100% 30.06 0.0
21 05:50 W 3 7.00 Overcast OVC017 68 66.2 94% 30.05 0.0
21 05:30 Calm 7.00 Mostly Cloudy BKN017 66.2 66.2 100% 30.05 0.0
21 05:10 Calm 7.00 Fair CLR 68 66.2 94% 30.04 0.0
21 04:50 Calm 7.00 Fair CLR 68 68 100% 30.03 0.0
21 04:30 Calm 2.00 Fair CLR 68 68 100% 30.03 0.0
21 04:10 Calm 5.00 Fair CLR 68 68 100% 30.02 0.0
21 03:50 Calm 7.00 Fair CLR 68 68 100% 30.03 0.0
21 03:30 Calm 10.00 Fair CLR 68 68 100% 30.03 0.0
21 03:10 Calm 10.00 Fair CLR 68 68 100% 30.02 0.0
21 02:50 Calm 5.00 Fair CLR 68 68 100% 30.03 0.0
21 02:30 Calm 7.00 Fair CLR 69.8 68 94% 30.03 0.0
21 02:10 Calm 10.00 Partly Cloudy SCT025 69.8 68 94% 30.04 0.0
21 01:50 Calm 10.00 Overcast OVC023 69.8 69.8 100% 30.05 0.0
21 01:30 W 3 10.00 Overcast OVC019 69.8 69.8 100% 30.06 0.0
21 01:10 W 3 10.00 Overcast OVC019 69.8 69.8 100% 30.05 0.0
21 00:50 W 3 10.00 Overcast BKN014 OVC020 69.8 69.8 100% 30.04 0.0
21 00:30 W 3 10.00 Overcast OVC014 69.8 69.8 100% 30.04 0.0
21 00:10 Calm 10.00 Mostly Cloudy BKN016 69.8 69.8 100% 30.04 0.0
20 23:50 Calm 4.00 Fair CLR 69.8 68 94% 30.03 0.0
20 23:30 Calm 7.00 Partly Cloudy SCT014 69.8 69.8 100% 30.03 0.0
20 23:10 Calm 5.00 Overcast OVC014 69.8 68 94% 30.05 0.0
20 22:50 Calm 3.00 Mostly Cloudy BKN014 68 68 100% 30.06 0.0
20 22:30 Calm 4.00 Fair CLR 68 68 100% 30.06 0.0
20 22:10 Calm 10.00 Fair CLR 69.8 69.8 100% 30.06 0.0
20 21:50 Calm 7.00 Fair CLR 69.8 69.8 100% 30.06 0.0
20 21:30 Calm 7.00 Fair CLR 69.8 69.8 100% 30.06 0.0
20 21:10 Calm 7.00 Fair CLR 69.8 69.8 100% 30.06 0.0
20 20:50 Calm 7.00 Partly Cloudy SCT120 69.8 69.8 100% 30.06 0.0
20 20:30 Calm 10.00 Mostly Cloudy BKN110 69.8 69.8 100% 30.06 0.0
20 20:10 Calm 10.00 Overcast OVC110 71.6 69.8 94% 30.06 0.0
20 19:50 W 3 10.00 Mostly Cloudy BKN120 71.6 69.8 94% 30.06 0.0
20 19:30 Calm 10.00 Mostly Cloudy SCT017 BKN120 71.6 69.8 94% 30.05 0.0
20 19:10 Calm 10.00 Mostly Cloudy BKN015 BKN120 71.6 69.8 94% 30.04 0.0
20 18:50 Calm 10.00 Partly Cloudy SCT032 SCT037 SCT043 71.6 68 88% 30.03 0.0 0.01
20 18:30 SE 7 10.00 Mostly Cloudy SCT032 SCT047 BKN070 71.6 68 88% 30.04 0.0 0.01
20 18:10 SE 6 10.00 Overcast SCT033 SCT050 OVC085 71.6 69.8 94% 30.05 0.0
20 17:50 SE 5 10.00 Overcast SCT034 BKN050 OVC120 71.6 69.8 94% 30.06 0.0 0.01
20 17:30 Calm 10.00 Overcast SCT065 BKN075 OVC080 71.6 69.8 94% 30.06 0.0 0.01
20 17:10 Calm 10.00 Overcast SCT060 BKN085 OVC090 71.6 68 88% 30.08 0.0 0.01
20 16:50 Calm 10.00 Overcast SCT044 BKN070 OVC100 71.6 68 88% 30.09 0.0
20 16:30 E 6 10.00 Overcast SCT029 BKN050 OVC075 73.4 68 83% 30.09 0.0
20 16:10 Calm 10.00 Overcast SCT055 BKN065 OVC090 73.4 71.6 94% 30.09 0.0
20 15:50 SE 3 10.00 Overcast SCT026 SCT070 OVC100 73.4 69.8 89% 30.1 0.0
20 15:30 SE 6 10.00 Overcast SCT024 BKN031 OVC110 75.2 69.8 83% 75 30.1 0.0
20 15:10 E 7 10.00 Overcast SCT022 SCT031 OVC110 77 69.8 79% 79 30.09 0.0
20 14:50 E 6 10.00 Overcast SCT022 SCT042 OVC120 78.8 69.8 74% 81 30.09 0.0
20 14:30 E 9 10.00 Overcast SCT022 SCT044 OVC110 78.8 69.8 74% 81 30.09 0.0
20 14:10 E 7 10.00 Overcast BKN022 BKN027 OVC120 78.8 69.8 74% 81 30.09 0.0
20 13:50 E 9 10.00 Partly Cloudy SCT025 BKN050 SCT060 78.8 69.8 74% 81 30.1 0.0
20 13:30 E 7 10.00 Mostly Cloudy BKN026 BKN050 BKN060 78.8 71.6 79% 82 30.1 0.0
20 13:10 SE 8 10.00 Mostly Cloudy BKN024 BKN075 BKN110 78.8 69.8 74% 81 30.11 0.0
20 12:50 E 9 10.00 Overcast BKN024 BKN028 OVC110 78.8 69.8 74% 81 30.11 0.0
20 12:30 SE 7 10.00 Overcast BKN022 BKN028 OVC035 78.8 71.6 79% 82 30.11 0.0
20 12:10 SE 7 10.00 Overcast BKN024 BKN032 OVC095 78.8 69.8 74% 81 30.11 0.0
20 11:50 SE 7 10.00 Mostly Cloudy SCT024 SCT032 BKN100 80.6 69.8 70% 84 30.11 0.0
20 11:30 SE 7 10.00 Mostly Cloudy SCT022 SCT027 BKN120 78.8 71.6 79% 82 30.12 0.0
20 11:10 SE 7 10.00 Mostly Cloudy SCT022 SCT027 BKN100 78.8 69.8 74% 81 30.12 0.0
20 10:50 SE 9 10.00 Partly Cloudy SCT022 SCT027 78.8 69.8 74% 81 30.12 0.0
20 10:30 SE 8 10.00 Mostly Cloudy SCT018 SCT023 BKN032 78.8 71.6 79% 82 30.12 0.0
20 10:10 E 5 10.00 Mostly Cloudy SCT018 SCT028 BKN080 78.8 71.6 79% 82 30.12 0.0
20 09:50 E 5 10.00 Mostly Cloudy BKN016 BKN022 78.8 71.6 79% 82 30.12 0.0
20 09:30 SE 7 10.00 Mostly Cloudy BKN018 BKN023 77 71.6 83% 78 30.12 0.0
20 09:10 SE 7 10.00 Mostly Cloudy BKN018 BKN022 BKN027 77 71.6 83% 78 30.12 0.0
20 08:50 E 3 10.00 Mostly Cloudy BKN016 BKN027 77 71.6 83% 78 30.12 0.0
20 08:30 E 3 10.00 Mostly Cloudy BKN016 77 71.6 83% 78 30.13 0.0
20 08:10 E 3 10.00 Partly Cloudy SCT016 SCT021 77 71.6 83% 78 30.13 0.0
20 07:50 Calm 10.00 Fair CLR 75.2 71.6 89% 75 30.12 0.0
20 07:30 Calm 10.00 Fair CLR 71.6 71.6 100% 30.12 0.0
20 07:10 Calm 10.00 Fair CLR 71.6 69.8 94% 30.12 0.0
20 06:50 Calm 10.00 Fair CLR 69.8 69.8 100% 30.12 0.0
20 06:30 Calm 10.00 Fair CLR 69.8 69.8 100% 30.12 0.0
20 06:10 Calm 10.00 Fair CLR 69.8 69.8 100% 30.12 0.0
20 05:50 Calm 10.00 Fair CLR 69.8 69.8 100% 30.12 0.0
20 05:30 Calm 10.00 Fair CLR 69.8 68 94% 30.12 0.0
20 05:10 Calm 10.00 Fair CLR 69.8 69.8 100% 30.12 0.0
20 04:50 Calm 10.00 Fair CLR 69.8 68 94% 30.12 0.0
20 04:30 Calm 10.00 Fair CLR 69.8 68 94% 30.12 0.0
20 04:10 Calm 10.00 Fair CLR 69.8 68 94% 30.12 0.0
20 03:50 Calm 10.00 Fair CLR 69.8 69.8 100% 30.12 0.0
20 03:30 Calm 10.00 Fair CLR 69.8 68 94% 30.12 0.0
20 03:10 Calm 10.00 Fair CLR 69.8 69.8 100% 30.12 0.0
20 02:50 Calm 10.00 Fair CLR 69.8 68 94% 30.12 0.0
20 02:30 Calm 10.00 Fair CLR 69.8 68 94% 30.12 0.0
20 02:10 Calm 10.00 Fair CLR 69.8 68 94% 30.12 0.0
20 01:50 Calm 10.00 Fair CLR 71.6 68 88% 30.13 0.0
20 01:30 Calm 10.00 Fair CLR 71.6 68 88% 30.14 0.0
20 01:10 Calm 10.00 Fair CLR 71.6 68 88% 30.14 0.0
20 00:50 Calm 10.00 Fair CLR 71.6 68 88% 30.14 0.0
20 00:30 SE 3 10.00 Fair CLR 71.6 68 88% 30.15 0.0
20 00:10 Calm 10.00 Fair CLR 71.6 68 88% 30.15 0.0
19 23:50 Calm 10.00 Fair CLR 73.4 68 83% 30.15 0.0
19 23:30 Calm 10.00 Fair CLR 73.4 68 83% 30.15 0.0
19 23:10 SE 5 10.00 Fair CLR 73.4 68 83% 30.15 0.0
19 22:50 SE 5 10.00 Fair CLR 73.4 68 83% 30.15 0.0
19 22:30 E 3 10.00 Fair CLR 73.4 68 83% 30.15 0.0
19 22:10 SE 3 10.00 Fair CLR 73.4 68 83% 30.15 0.0
19 21:50 SE 3 10.00 Fair CLR 73.4 68 83% 30.15 0.0
19 21:30 Calm 10.00 Fair CLR 75.2 68 78% 76 30.15 0.0
19 21:10 Calm 10.00 Fair CLR 75.2 66.2 74% 77 30.14 0.0
19 20:50 Calm 10.00 Fair CLR 77 66.2 69% 79 30.13 0.0
19 20:30 Calm 10.00 Fair CLR 77 66.2 69% 79 30.12 0.0
19 20:10 Calm 10.00 Fair CLR 77 66.2 69% 79 30.12 0.0
19 19:50 SE 3 10.00 Fair CLR 78.8 64.4 61% 81 30.12 0.0
19 19:30 SE 5 10.00 Fair CLR 80.6 64.4 58% 82 30.12 0.0
19 19:10 SE 6 10.00 Fair CLR 80.6 62.6 54% 82 30.11 0.0
19 18:50 E 6 10.00 Fair CLR 80.6 62.6 54% 82 30.11 0.0
19 18:30 SE 6 10.00 Fair CLR 82.4 60.8 48% 83 30.11 0.0
19 18:10 SE 5 10.00 Fair CLR 82.4 60.8 48% 83 30.11 0.0
19 17:50 SE 6 10.00 Partly Cloudy SCT055 82.4 60.8 48% 83 30.1 0.0
19 17:30 SE 6 10.00 Partly Cloudy SCT055 82.4 60.8 48% 83 30.11 0.0
19 17:10 E 6 10.00 Fair CLR 82.4 60.8 48% 83 30.11 0.0
19 16:50 E 5 10.00 Fair CLR 82.4 62.6 51% 83 30.11 0.0
19 16:30 Calm 10.00 Fair CLR 82.4 62.6 51% 83 30.11 0.0
19 16:10 E 5 10.00 Fair CLR 82.4 62.6 51% 83 30.12 0.0
19 15:50 E 5 10.00 Fair CLR 82.4 62.6 51% 83 30.12 0.0
19 15:30 NE 5 10.00 Partly Cloudy SCT048 82.4 62.6 51% 83 30.12 0.0
19 15:10 E 7 10.00 Partly Cloudy SCT046 82.4 62.6 51% 83 30.13 0.0
19 14:50 E 5 10.00 Fair CLR 80.6 62.6 54% 82 30.14 0.0
19 14:30 NE 7 10.00 Fair CLR 82.4 62.6 51% 83 30.14 0.0
19 14:10 E 6 10.00 Fair CLR 82.4 60.8 48% 83 30.14 0.0
19 13:50 E 6 10.00 Fair CLR 80.6 60.8 51% 81 30.15 0.0
19 13:30 NE 6 10.00 Fair CLR 80.6 60.8 51% 81 30.16 0.0
19 13:10 Calm 10.00 Fair CLR 80.6 60.8 51% 81 30.15 0.0
19 12:50 SE 3 10.00 Partly Cloudy SCT120 80.6 62.6 54% 82 30.15 0.0
19 12:30 NE 5 10.00 Partly Cloudy SCT120 80.6 60.8 51% 81 30.15 0.0
19 12:10 E 3 10.00 Mostly Cloudy BKN120 80.6 62.6 54% 82 30.15 0.0
19 11:50 E 5 10.00 Overcast OVC120 78.8 62.6 58% 80 30.15 0.0
19 11:30 Calm 10.00 Overcast OVC120 78.8 60.8 54% 80 30.15 0.0
19 11:10 NE 6 10.00 Mostly Cloudy BKN120 78.8 60.8 54% 80 30.15 0.0
19 10:50 NE 5 10.00 Partly Cloudy SCT110 78.8 62.6 58% 80 30.14 0.0
19 10:30 N 7 10.00 Fair CLR 78.8 62.6 58% 80 30.14 0.0
19 10:10 NE 6 10.00 Fair CLR 77 60.8 57% 79 30.14 0.0
19 09:50 NE 3 10.00 Fair CLR 77 62.6 61% 79 30.14 0.0
19 09:30 N 5 10.00 Fair CLR 77 62.6 61% 79 30.14 0.0
19 09:10 NE 6 10.00 Fair CLR 77 62.6 61% 79 30.14 0.0
19 08:50 NE 3 10.00 Fair CLR 75.2 62.6 65% 77 30.13 0.0
19 08:30 NE 3 10.00 Fair CLR 73.4 64.4 74% 30.12 0.0
19 08:10 NE 3 10.00 Fair CLR 73.4 64.4 74% 30.12 0.0
19 07:50 NE 5 10.00 Partly Cloudy SCT100 73.4 64.4 74% 30.12 0.0
19 07:30 Calm 10.00 Partly Cloudy SCT100 71.6 68 88% 30.1 0.0
19 07:10 Calm 10.00 Fair CLR 71.6 68 88% 30.09 0.0
19 06:50 Calm 10.00 Fair CLR 68 68 100% 30.08 0.0
19 06:30 Calm 10.00 Fair CLR 68 68 100% 30.07 0.0
19 06:10 Calm 5.00 Fair CLR 68 68 100% 30.06 0.0
19 05:50 Calm 5.00 Fair CLR 68 68 100% 30.05 0.0
19 05:30 Calm 10.00 Fair CLR 68 68 100% 30.04 0.0
19 05:10 Calm 5.00 Fair CLR 68 68 100% 30.04 0.0
19 04:50 Calm 7.00 Fair CLR 68 68 100% 30.04 0.0
19 04:30 Calm 5.00 Fair CLR 68 68 100% 30.04 0.0
19 04:10 Calm 10.00 Fair CLR 68 68 100% 30.03 0.0
19 03:50 Calm 10.00 Fair CLR 68 68 100% 30.03 0.0
19 03:30 Calm 10.00 Fair CLR 68 68 100% 30.03 0.0
19 03:10 Calm 10.00 Fair CLR 68 68 100% 30.03 0.0
19 02:50 Calm 10.00 Partly Cloudy SCT120 68 68 100% 30.02 0.0
19 02:30 Calm 10.00 Overcast OVC120 68 68 100% 30.02 0.0
19 02:10 Calm 10.00 Mostly Cloudy BKN120 68 68 100% 30.02 0.0
19 01:50 Calm 10.00 Fair CLR 68 68 100% 30.03 0.0
19 01:30 Calm 10.00 Fair CLR 69.8 68 94% 30.03 0.0
19 01:10 Calm 10.00 Fair CLR 69.8 68 94% 30.02 0.0
19 00:50 Calm 10.00 Fair CLR 69.8 68 94% 30.03 0.0
19 00:30 Calm 10.00 Fair CLR 69.8 68 94% 30.03 0.0
19 00:10 Calm 10.00 Fair CLR 69.8 68 94% 30.03 0.0
18 23:50 Calm 10.00 Fair CLR 69.8 68 94% 30.03 0.0
18 23:30 Calm 10.00 Fair CLR 71.6 66.2 83% 30.02 0.0
18 23:10 Calm 10.00 Fair CLR 71.6 66.2 83% 30.02 0.0
18 22:50 Calm 10.00 Fair CLR 71.6 66.2 83% 30.01 0.0
18 22:30 Calm 10.00 Fair CLR 73.4 66.2 78% 30.01 0.0
18 22:10 Calm 10.00 Fair CLR 73.4 64.4 74% 30 0.0
18 21:50 Calm 10.00 Fair CLR 73.4 64.4 74% 30.01 0.0
18 21:30 Calm 10.00 Fair CLR 73.4 64.4 74% 30 0.0
18 21:10 Calm 10.00 Fair CLR 75.2 64.4 69% 77 29.99 0.0
18 20:50 Calm 10.00 Fair CLR 75.2 64.4 69% 77 29.99 0.0
18 20:30 Calm 10.00 Fair CLR 77 64.4 65% 79 29.99 0.0
18 20:10 Calm 10.00 Fair CLR 78.8 64.4 61% 81 29.98 0.0
18 19:50 Calm 10.00 Fair CLR 78.8 64.4 61% 81 29.96 0.0
18 19:30 Calm 10.00 Fair CLR 78.8 68 70% 81 29.96 0.0
18 19:10 N 5 10.00 Partly Cloudy SCT085 80.6 68 66% 83 29.95 0.0
18 18:50 Calm 10.00 Mostly Cloudy SCT085 BKN120 80.6 68 66% 83 29.94 0.0
Date Time (edt) Wind (mph) Vis. (mi.) Weather Sky Cond. Air Dwpt Max. Min. Relative Humidity Wind Chill (°F) Heat Index (°F) altimeter (in) sea level (mb) 1 hr 3 hr 6 hr
6 hour
Temperature (ºF) Pressure Precipitation (in)